Hourly Data Report for October 24, 2020

PILGER
SASKATCHEWAN
Current Station Operator: ECCC - MSC

52°25'00.000" N
105°09'00.000" W
552.00 m
4056121
71655
PUN

Download Data

Hourly Data (October 2020)
Hourly Data Report for October 24, 2020
TIME
LST
Temp Definition
°C
Dew Point Definition
°C
Rel Hum Definition
%
Precip. Amount Definition
mm

Wind Dir Definition
10's deg

Wind Spd Definition
km/h
Visibility Definition
km
Stn Press Definition
kPa
Hmdx Definition


Wind Chill Definition


Weather Definition


00:00 -7.7 -11.4 75 0.0 34 10   96.12   -13 LegendNANA
01:00 -7.5 -11.4 74 0.0 35 9   96.14   -12 LegendNANA
02:00 -7.8 -10.8 79 0.0 31 10   96.16   -13 LegendNANA
03:00 -7.8 -11.0 78 0.0 31 13   96.16   -14 LegendNANA
04:00 -7.9 -10.6 81 0.0 30 10   96.18   -13 LegendNANA
05:00 -7.7 -10.9 78 0.0 30 14   96.18   -14 LegendNANA
06:00 -7.7 -10.8 79 0.0 30 14   96.20   -14 LegendNANA
07:00 -7.8 -10.6 80 0.0 30 13   96.22   -14 LegendNANA
08:00 -7.7 -10.8 79 0.0 31 17   96.27   -14 LegendNANA
09:00 -7.5 -10.4 79 0.0 32 18   96.33   -14 LegendNANA
10:00 -7.0 -10.3 77 0.0 32 19   96.37   -14 LegendNANA
11:00 -6.7 -10.1 77 0.0 32 18   96.37   -13 LegendNANA
12:00 -6.3 -10.1 75 0.0 32 18   96.36   -13 LegendNANA
13:00 -6.7 -10.6 74 0.3 36 16   96.34   -13 LegendNANA
14:00 -5.8 -11.0 67 0.0 32 17   96.31   -12 LegendNANA
15:00 -5.8 -10.1 72 0.0 30 16   96.29   -12 LegendNANA
16:00 -5.9 -10.9 67 0.0 31 19   96.28   -13 LegendNANA
17:00 -6.6 -9.3 81 0.0 30 19   96.31   -13 LegendNANA
18:00 -6.6 -9.4 80 0.0 30 18   96.33   -13 LegendNANA
19:00 -6.4 -10.2 74 0.0 29 18   96.34   -13 LegendNANA
20:00 -6.6 -9.9 77 0.0 29 16   96.33   -13 LegendNANA
21:00 -6.5 -9.6 79 0.0 29 16   96.34   -13 LegendNANA
22:00 -6.5 -9.6 79 0.0 30 17   96.38   -13 LegendNANA
23:00 -6.6 -9.1 83 0.0 29 16   96.40   -13 LegendNANA

Notes on Data Quality.

Legend

  • E = Estimated
  • M = Missing
  • NA = Not Available*
  • [empty] = Indicates an unobserved value
Date modified: